Location: Advent Pentecost Church
(32.7757°N, 96.7408°W)
Time: 07:10:40
(UTC+00:00)

N. Korean satellite - Pass Details

Date: 30 October 2021
Orbit: 447 x 495 km, 97.3° (Epoch: 30 November)

Event Time Altitude Azimuth Distance (km) Brightness Sun altitude
Rises 10:36:48 0° 37° (NE) 2,562 10.7 -27.1°
Reaches altitude 10° 10:40:08 10° 71° (ENE) 1,663 10.2 -26.4°
Maximum altitude 10:41:27 12° 93° (E) 1,552 10.1 -26.1°
Drops below altitude 10° 10:42:46 10° 115° (ESE) 1,648 10.1 -25.8°
Sets 10:46:01 0° 149° (SSE) 2,506 10.6 -25.1°
